DLH2YA EPWA-EDDF

Flight info

Callsign DLH2YA
Flight time N/A
Altitude 38000
Route LOLSI DCT DIBLO DCT INDIG DCT KORUP DCT SULED DCT ROBEL T178 KERAX KERAX5A
Aircraft A319/M-SDE3FGHIRWY/LB1

Departure

Time 2026-05-07 12:58
Airport Warsaw Chopin Airport (EPWA)

Arrival

Time N/A
Airport Frankfurt Main Airport (EDDF)
Time Latitude Longitude Altitude Speed Heading
2026-05-07 12:35 52.16957 20.97190 335 ft 0 kts 68°
2026-05-07 12:50 52.16954 20.97177 339 ft 4 kts 68°
2026-05-07 12:50 52.16944 20.97136 334 ft 4 kts 68°
2026-05-07 12:50 52.16935 20.97096 336 ft 4 kts 77°
2026-05-07 12:51 52.16932 20.97054 335 ft 4 kts 108°
2026-05-07 12:51 52.16943 20.97028 337 ft 0 kts 152°
2026-05-07 12:53 52.16938 20.97032 339 ft 2 kts 152°
2026-05-07 12:53 52.16914 20.97053 336 ft 6 kts 152°
2026-05-07 12:54 52.16869 20.97093 337 ft 9 kts 152°
2026-05-07 12:54 52.16801 20.97152 338 ft 13 kts 152°
2026-05-07 12:54 52.16713 20.97229 337 ft 16 kts 152°
2026-05-07 12:54 52.16615 20.97315 335 ft 17 kts 152°
2026-05-07 12:55 52.16551 20.97450 337 ft 15 kts 114°
2026-05-07 12:55 52.16506 20.97611 338 ft 16 kts 115°
2026-05-07 12:55 52.16460 20.97774 339 ft 16 kts 115°
2026-05-07 12:55 52.16412 20.97941 337 ft 16 kts 115°
2026-05-07 12:56 52.16365 20.98111 338 ft 17 kts 114°
2026-05-07 12:56 52.16317 20.98286 337 ft 17 kts 114°
2026-05-07 12:56 52.16266 20.98457 338 ft 16 kts 130°
2026-05-07 12:56 52.16171 20.98434 336 ft 15 kts 205°
2026-05-07 12:57 52.16126 20.98307 337 ft 12 kts 292°
2026-05-07 12:57 52.16144 20.98243 337 ft 7 kts 295°
2026-05-07 12:57 52.16227 20.97961 337 ft 64 kts 295°
2026-05-07 12:57 52.16511 20.96935 335 ft 132 kts 294°
2026-05-07 12:58 52.16911 20.95452 805 ft 142 kts 295°
2026-05-07 12:58 52.17323 20.93980 1506 ft 143 kts 297°
2026-05-07 12:58 52.17772 20.92405 1922 ft 164 kts 296°
2026-05-07 12:58 52.18221 20.90558 2310 ft 188 kts 282°
2026-05-07 12:59 52.18291 20.89090 2537 ft 205 kts 271°
2026-05-07 12:59 52.18220 20.86620 2973 ft 231 kts 266°
2026-05-07 12:59 52.18092 20.83879 3601 ft 250 kts 268°
2026-05-07 12:59 52.18317 20.81028 4596 ft 256 kts 279°
2026-05-07 13:00 52.18673 20.78177 5643 ft 258 kts 280°
2026-05-07 13:00 52.19066 20.75297 6652 ft 262 kts 280°
2026-05-07 13:00 52.19462 20.72375 7620 ft 265 kts 276°
2026-05-07 13:00 52.19462 20.69388 8561 ft 266 kts 258°
2026-05-07 13:01 52.18925 20.66501 9534 ft 267 kts 249°
2026-05-07 13:01 52.18280 20.63616 10318 ft 278 kts 249°
2026-05-07 13:01 52.17587 20.60527 10670 ft 302 kts 248°
2026-05-07 13:01 52.16856 20.57251 11077 ft 320 kts 248°
2026-05-07 13:02 52.16091 20.53807 11802 ft 326 kts 248°
2026-05-07 13:02 52.15517 20.50196 12611 ft 333 kts 259°
2026-05-07 13:02 52.15422 20.46386 13416 ft 342 kts 270°
2026-05-07 13:02 52.15595 20.42454 14170 ft 346 kts 270°
2026-05-07 13:03 52.15762 20.38581 14864 ft 349 kts 270°
2026-05-07 13:03 52.15927 20.34611 15559 ft 353 kts 270°
2026-05-07 13:03 52.16087 20.30593 16252 ft 357 kts 270°
2026-05-07 13:03 52.16245 20.26528 16949 ft 360 kts 270°
2026-05-07 13:04 52.16405 20.22436 17632 ft 364 kts 270°
2026-05-07 13:04 52.16567 20.18295 18309 ft 368 kts 270°
2026-05-07 13:04 52.16733 20.14116 18912 ft 371 kts 270°
2026-05-07 13:04 52.16809 20.12198 19192 ft 372 kts 270°
2026-05-07 13:05 52.16814 20.12065 19218 ft 372 kts 270°
2026-05-07 13:05 52.16978 20.07842 19872 ft 375 kts 270°
2026-05-07 13:05 52.17140 20.03598 20541 ft 376 kts 269°
2026-05-07 13:05 52.17297 19.99386 21198 ft 377 kts 269°
2026-05-07 13:06 52.17453 19.95110 21852 ft 379 kts 269°
2026-05-07 13:06 52.17609 19.90814 22475 ft 381 kts 269°
2026-05-07 13:06 52.17651 19.86509 23077 ft 379 kts 262°
2026-05-07 13:06 52.17324 19.82256 23646 ft 379 kts 258°
2026-05-07 13:07 52.16940 19.77999 24114 ft 381 kts 258°
2026-05-07 13:07 52.16551 19.73716 24559 ft 384 kts 257°
2026-05-07 13:07 52.16159 19.69393 24989 ft 386 kts 257°
2026-05-07 13:07 52.15770 19.65059 25417 ft 389 kts 257°
2026-05-07 13:08 52.15377 19.60687 25838 ft 391 kts 257°
2026-05-07 13:08 52.14980 19.56287 26270 ft 394 kts 257°
2026-05-07 13:08 52.14575 19.51848 26692 ft 397 kts 257°
2026-05-07 13:08 52.14165 19.47390 27118 ft 399 kts 257°
2026-05-07 13:09 52.14062 19.46269 27216 ft 400 kts 256°
2026-05-07 13:09 52.13995 19.45541 27283 ft 401 kts 256°
2026-05-07 13:09 52.13577 19.41039 27685 ft 403 kts 256°
2026-05-07 13:09 52.13156 19.36512 28062 ft 407 kts 256°
2026-05-07 13:10 52.12731 19.31934 28433 ft 410 kts 256°
2026-05-07 13:10 52.12302 19.27337 28800 ft 413 kts 256°
2026-05-07 13:10 52.11873 19.22759 29159 ft 415 kts 256°
2026-05-07 13:10 52.11431 19.18042 29521 ft 418 kts 256°
2026-05-07 13:11 52.10990 19.13351 29887 ft 421 kts 255°
2026-05-07 13:11 52.10543 19.08640 30202 ft 423 kts 255°
2026-05-07 13:11 52.10091 19.03898 30510 ft 425 kts 255°
2026-05-07 13:11 52.09635 18.99146 30832 ft 426 kts 255°
2026-05-07 13:12 52.09186 18.94462 31357 ft 423 kts 255°
2026-05-07 13:12 52.08728 18.89699 31884 ft 420 kts 255°
2026-05-07 13:12 52.08282 18.85075 32375 ft 417 kts 255°
2026-05-07 13:12 52.07832 18.80436 32862 ft 415 kts 255°
2026-05-07 13:13 52.07379 18.75818 33356 ft 412 kts 255°
2026-05-07 13:13 52.06925 18.71219 33843 ft 410 kts 255°
2026-05-07 13:13 52.06472 18.66654 34260 ft 409 kts 255°
2026-05-07 13:13 52.06017 18.62091 34605 ft 409 kts 255°
2026-05-07 13:14 52.05559 18.57521 34898 ft 410 kts 255°
2026-05-07 13:14 52.05102 18.52939 35189 ft 411 kts 255°
2026-05-07 13:14 52.04641 18.48345 35475 ft 412 kts 255°
2026-05-07 13:14 52.04175 18.43742 35750 ft 413 kts 256°
2026-05-07 13:15 52.03708 18.39139 36057 ft 414 kts 256°
2026-05-07 13:15 52.03239 18.34515 36313 ft 415 kts 256°
2026-05-07 13:15 52.02767 18.29886 36545 ft 416 kts 256°
2026-05-07 13:15 52.02290 18.25242 36799 ft 417 kts 256°
2026-05-07 13:16 52.01809 18.20589 37040 ft 418 kts 256°
2026-05-07 13:16 52.01324 18.15934 37271 ft 419 kts 256°
2026-05-07 13:16 52.00836 18.11257 37510 ft 420 kts 256°
2026-05-07 13:16 52.00349 18.06576 37738 ft 421 kts 257°
2026-05-07 13:17 51.99869 18.01954 37937 ft 422 kts 257°
2026-05-07 13:17 51.99374 17.97251 37997 ft 423 kts 256°
2026-05-07 13:17 51.98334 17.87862 38014 ft 423 kts 256°
2026-05-07 13:18 51.97245 17.78471 38000 ft 424 kts 256°
2026-05-07 13:18 51.96158 17.69076 37990 ft 424 kts 256°
2026-05-07 13:19 51.95079 17.59670 38002 ft 424 kts 256°
2026-05-07 13:19 51.93992 17.50270 38003 ft 425 kts 256°
2026-05-07 13:20 51.92887 17.40856 38005 ft 425 kts 256°
2026-05-07 13:20 51.91779 17.31440 38031 ft 426 kts 255°
2026-05-07 13:21 51.90673 17.22004 38023 ft 427 kts 255°
2026-05-07 13:21 51.89548 17.12565 38012 ft 427 kts 255°
2026-05-07 13:22 51.88408 17.03109 38008 ft 428 kts 255°
2026-05-07 13:22 51.87259 16.93657 38014 ft 428 kts 255°